Regional Weather Roundup
Issued by NWS Albany, NY

Home | Current Version | Previous Version | Text Only | Print | Product List | Glossary On
Versions: 1 2 3 4 5 6 7 8 9 10 11 12 13 14 15 16 17 18 19 20 21 22 23 24 25 26 27 28 29 30 31 32 33 34 35 36 37 38 39 40 41 42 43 44 45 46 47 48 49 50
000
ASUS41 KALY 230710
RWRALY

NEW YORK STATE HOURLY WEATHER ROUNDUP
NATIONAL WEATHER SERVICE ALBANY NY
300 AM EDT TUE SEP 23 2014

NOTE: "FAIR" INDICATES FEW OR NO CLOUDS BELOW 12,000 FEET WITH NO
SIGNIFICANT WEATHER AND/OR NO OBSTRUCTIONS TO VISIBILITY.

NYZ032-033-038>043-046>054-057>066-NYZ062>081-230800-
EAST


CITY           SKY/WX    TMP DP  RH WIND       PRES   REMARKS
ALBANY         PTCLDY    46  41  82 NE3       30.20S
GLENS FALLS    CLEAR     38  35  89 CALM      30.19R
POUGHKEEPSIE   CLEAR     41  39  93 CALM      30.19R
NEWBURGH       CLEAR     45  41  87 CALM      30.20R
MONTGOMERY     CLEAR     42  38  85 S5        30.19R
WHITE PLAINS   CLEAR     46  39  76 CALM      30.18S
ISLIP          CLEAR     48  41  76 CALM      30.17R
NEW YORK CITY  CLEAR     55  40  56 NW15      30.19S
CENTRAL PARK   CLEAR     54  38  54 CALM      30.23R
$$

NYZ005>009-017-018-044>046-055-056-230800-
CENTRAL


CITY           SKY/WX    TMP DP  RH WIND       PRES   REMARKS
FULTON         PTCLDY    46  42  86 SW5       30.22S
SYRACUSE       PTCLDY    49  43  80 W9        30.22S
ROME           MOCLDY    43  41  93 N5        30.23S
ELMIRA         CLEAR     38  38 100 CALM      30.24S
BINGHAMTON     CLEAR     43  39  86 NW3       30.21S
MONTICELLO     CLEAR     43  37  81 MISG      30.20S
$$

NYZ026>034-041>043-230800-
NORTH


CITY           SKY/WX    TMP DP  RH WIND       PRES   REMARKS
WATERTOWN      CLEAR     39  34  82 CALM      30.20R
FORT DRUM      NOT AVBL
MASSENA        CLOUDY    44  42  93 SW8       30.16S
SARANAC LAKE   MOCLDY    39  37  92 SW5       30.14S
PLATTSBURGH    CLEAR     42  40  92 CALM      30.14R
$$

NYZ001>004-010>016-019>021-230800-
WEST


CITY           SKY/WX    TMP DP  RH WIND       PRES   REMARKS
NIAGARA FALLS  CLOUDY    49  42  77 SW8       30.24S
BUFFALO        PTCLDY    50  40  68 W6        30.25S
DUNKIRK        CLEAR     46  42  86 SW6       30.27R
JAMESTOWN      CLOUDY    41  39  93 SW3       30.27S VSB 1
WELLSVILLE     CLEAR     43  40  89 W8        30.26R
ROCHESTER      CLEAR     42  40  92 SW6       30.24S
PENN YAN       CLEAR     42  40  92 S3        30.24S
$$

             KEY
       WCI = WIND CHILL INDEX
       VSB = VISIBILITY
       HX  = HEAT INDEX
$$


USA.gov is the U.S. government's official web portal to all federal, state and local government web resources and services.